EHI
0 0 0 0 0 0 0 0 0 0 0 0 0 1 2 4 6 10 20 29 34 37 39 40 41 44 50 54 55 51 44 37 32 28 25 24 23 22 22 22 23 20 14 12
0 0 0 0 0 0 0 0 0 0 0 0 0 1 1 3 4 8 17 26 32 36 39 42 44 46 49 52 52 50 45 38 32 29 26 24 24 24 22 22 24 21 17 14
0 0 0 0 0 0 0 0 0 0 1 0 0 0 1 2 4 8 15 23 31 36 40 45 47 47 47 48 47 46 45 40 34 30 26 24 24 25 23 23 23 21 17 15
0 0 0 0 0 0 0 0 0 0 0 0 0 0 1 2 6 10 15 22 30 36 41 46 47 48 48 46 43 42 43 41 36 31 28 25 24 23 24 25 24 21 18 15
0 0 0 0 0 0 0 0 0 0 0 0 0 0 1 3 7 11 16 21 28 34 40 45 47 49 48 44 40 39 42 41 37 32 29 27 25 25 25 26 26 24 21 18
0 0 0 0 0 0 0 0 0 0 0 0 0 0 1 4 7 12 15 21 27 32 36 42 46 47 45 41 37 36 39 39 36 31 29 30 30 29 27 26 26 25 22 20
0 0 0 0 0 0 0 0 0 0 0 0 0 0 1 4 9 12 16 21 26 30 32 37 42 43 40 37 34 33 36 36 33 29 29 31 32 32 29 26 23 22 20 19
0 0 0 0 0 0 0 0 0 0 0 0 0 0 2 7 11 15 17 21 25 28 29 34 38 39 37 34 31 33 35 35 32 29 28 29 30 31 29 25 23 21 20 19
0 0 0 0 0 0 0 0 0 0 0 0 0 1 5 10 14 17 18 20 23 25 28 33 37 37 35 32 30 32 34 34 32 29 26 25 25 27 26 24 22 21 21 21
0 0 0 0 0 0 0 0 0 0 0 0 0 2 7 13 16 17 17 19 21 23 27 33 36 36 34 31 29 30 31 31 29 26 24 22 21 20 20 20 20 19 20 21
0 0 0 0 0 0 0 0 0 0 0 0 0 2 7 14 17 16 17 20 22 24 29 34 36 35 31 27 25 25 27 27 26 25 23 21 18 16 14 15 17 18 18 18
0 0 0 0 0 0 0 0 0 0 0 0 1 3 8 13 16 16 19 22 24 27 29 32 34 32 26 21 18 18 20 22 23 22 21 20 18 15 13 13 15 17 17 16
0 0 0 0 0 0 0 0 0 0 1 0 1 4 8 12 15 19 23 24 24 25 25 26 27 26 21 19 17 14 13 15 17 16 17 18 18 17 15 13 13 15 16 15
0 0 0 0 0 0 0 0 0 0 0 0 2 5 8 12 18 23 25 25 23 22 20 20 21 21 19 19 19 15 12 12 13 13 14 15 16 16 15 13 13 14 16 16
0 0 0 0 0 0 0 0 0 0 0 1 3 6 11 18 24 27 27 26 22 18 17 18 20 21 20 20 21 18 13 12 13 13 12 12 13 13 12 12 11 12 14 16
0 0 0 0 0 0 0 0 0 1 2 3 3 6 14 21 25 27 26 25 21 16 15 18 22 23 23 23 21 17 13 12 13 12 10 10 10 11 10 10 10 10 11 13
1 1 1 0 0 0 0 0 0 2 3 4 3 6 11 16 20 21 21 20 19 17 16 20 24 25 25 24 21 16 11 10 11 10 9 9 10 11 10 9 9 7 8 10
1 2 1 0 0 0 0 0 0 1 2 2 3 4 6 10 13 14 14 15 17 19 20 23 25 25 24 23 20 15 10 8 9 9 8 9 11 11 10 8 7 7 8 9
0 1 1 0 0 0 0 0 0 1 2 3 3 4 5 7 9 9 10 12 15 17 20 22 23 23 22 20 17 14 11 9 7 8 8 10 12 13 11 8 8 8 9 10
0 0 0 0 0 0 0 0 1 2 4 5 5 4 4 6 8 9 9 10 12 14 16 18 20 20 18 17 15 14 12 10 8 8 9 10 13 15 14 11 9 8 7 7
0 0 0 0 0 0 0 0 1 2 4 5 4 4 5 7 9 10 11 11 11 11 12 14 16 16 14 15 14 13 12 11 10 10 10 11 14 15 14 13 11 7 5 4
1 0 0 0 0 1 1 1 1 2 3 4 4 4 6 7 8 10 13 13 12 10 10 11 13 14 13 13 13 11 10 10 10 10 10 11 13 13 12 12 11 6 3 3
1 1 1 0 1 2 2 2 1 1 1 2 3 4 5 5 6 7 9 11 11 10 10 10 12 13 12 12 11 10 9 8 8 8 8 10 11 10 10 10 9 5 3 3
1 1 1 1 1 2 1 1 1 0 0 0 1 2 2 2 3 4 6 7 9 10 11 11 12 12 11 10 10 9 8 7 6 7 7 8 8 7 7 7 5 4 3 3
0 1 1 0 1 1 0 0 0 0 0 0 0 1 1 0 1 4 4 5 8 9 10 12 13 13 11 9 9 8 7 7 6 6 6 6 6 5 4 4 3 2 2 1
0 0 0 0 0 0 0 0 0 0 0 0 0 0 0 0 2 4 5 6 9 10 10 11 13 12 10 9 8 7 7 6 6 6 6 6 5 4 4 3 2 1 1 0
Wind_Speed
15 14 14 14 15 15 14 15 14 12 11 11 9 8 9 7 8 7 7 7 8 8 8 8 7 7 8 7 6 6 6 5 4 3 3 3 2 2 2 3 4 4 3 2
14 17 17 16 15 16 16 16 15 13 11 8 9 9 10 7 7 6 7 7 7 8 8 9 8 7 7 7 6 6 5 5 4 3 2 2 2 2 2 2 3 3 3 3
17 15 16 16 16 15 16 15 14 12 11 10 11 11 9 8 9 7 6 6 7 7 8 8 8 7 8 7 6 5 5 5 4 4 3 2 2 2 2 3 2 3 3 3
16 16 15 15 15 15 14 13 13 13 12 10 11 10 9 7 6 6 6 6 7 7 8 9 9 8 8 7 7 5 5 4 4 4 4 4 3 3 3 2 2 3 3 3
14 15 16 16 14 14 14 12 12 14 14 13 12 10 7 5 6 6 6 6 7 9 9 9 9 8 7 7 7 6 5 4 4 3 3 3 2 2 2 2 3 3 3 3
17 16 16 15 13 12 12 12 12 12 11 13 13 10 8 5 6 6 6 6 6 7 8 9 9 8 7 7 6 6 6 4 4 3 3 3 2 2 2 2 2 2 2 2
15 17 15 13 13 13 13 10 8 9 10 11 9 8 5 1 4 6 6 6 6 6 6 8 9 9 8 8 7 7 6 5 5 4 3 3 2 2 2 2 2 2 1 2
13 13 12 12 12 11 12 12 10 9 9 8 7 7 2 2 2 4 6 6 7 7 7 7 8 9 8 8 7 7 7 5 4 4 3 3 3 2 2 1 1 2 1 1
9 10 9 10 11 12 13 13 13 12 13 10 7 6 3 3 3 4 5 6 7 7 7 7 7 8 8 8 7 7 7 6 5 4 3 3 3 2 2 2 2 1 1 2
10 12 11 10 10 13 14 12 8 9 9 10 9 7 4 5 4 4 4 4 5 6 6 6 6 7 8 7 7 6 6 5 5 4 3 3 3 3 2 1 2 1 1 1
11 11 11 10 11 12 13 13 11 9 8 9 9 5 2 2 3 4 3 4 4 5 6 5 6 6 7 7 7 6 6 5 4 4 3 3 3 3 2 2 2 1 1 2
7 8 10 11 11 12 13 12 11 8 9 8 7 4 2 5 3 3 3 4 4 5 5 5 5 5 5 7 7 6 5 5 5 4 4 3 3 3 3 2 1 1 2 2
4 5 9 9 8 8 9 10 10 9 7 8 8 4 2 4 3 4 4 5 5 5 4 4 4 4 4 4 5 5 4 4 4 4 3 3 3 3 2 2 2 2 2 2
4 6 9 11 9 8 9 11 11 10 8 9 9 5 2 3 3 4 4 5 6 6 5 5 4 3 3 3 3 4 3 3 3 3 3 3 3 3 2 2 2 2 1 2
4 8 10 12 12 10 11 11 11 11 10 10 7 5 1 2 3 5 5 4 5 5 4 4 4 3 2 2 3 2 3 3 3 3 3 3 3 3 3 2 2 2 1 1
3 7 9 12 11 10 11 11 9 9 8 7 5 2 2 3 4 5 5 4 3 4 4 3 4 4 3 1 1 1 2 2 2 2 2 2 2 3 3 2 2 1 1 0
6 6 9 10 11 10 9 8 6 4 4 3 2 1 1 3 5 4 4 3 2 2 3 3 2 3 2 2 1 2 2 2 2 2 2 3 3 3 3 3 2 2 1 1
7 7 6 8 8 8 4 3 3 3 4 5 3 3 3 4 5 5 5 4 3 3 3 2 2 2 2 2 2 1 2 2 2 2 1 2 2 2 2 2 2 2 2 2
6 5 6 7 7 6 2 4 4 3 2 6 4 3 4 5 6 5 5 4 3 3 3 3 2 2 3 2 2 0 1 2 2 2 1 2 2 1 2 2 2 2 1 2
5 5 6 8 7 5 4 8 8 3 1 7 7 5 3 1 1 2 4 4 4 4 4 4 3 3 3 2 1 0 1 1 1 1 1 1 1 1 1 1 1 1 1 2
3 5 7 8 6 1 7 9 7 3 3 6 6 5 4 3 3 3 4 4 4 5 5 4 4 3 2 2 2 1 1 1 1 1 1 1 1 1 1 1 1 1 2 2
3 3 4 5 5 1 8 5 5 4 5 6 6 5 6 6 5 5 5 5 5 5 5 5 4 3 3 3 2 1 2 2 2 2 2 2 1 1 0 1 1 1 2 2
2 2 2 3 2 5 6 6 5 4 4 5 5 6 6 6 5 5 6 5 5 5 4 4 4 4 3 3 2 1 2 2 2 2 2 2 1 1 0 1 1 2 2 2
2 4 2 1 3 4 5 6 6 5 5 5 6 6 6 5 5 5 4 4 4 4 4 4 4 3 3 3 2 2 2 2 2 2 2 1 1 1 1 0 1 1 1 1
5 4 2 1 1 2 3 4 5 4 4 5 5 5 5 4 4 4 3 3 3 3 3 3 3 2 2 2 2 3 2 2 2 1 1 1 1 1 1 1 1 1 1 1
4 3 2 2 2 1 2 2 2 3 4 4 3 3 4 4 3 3 3 3 2 2 2 2 2 2 2 2 2 2 2 2 2 1 1 2 2 1 1 1 1 3 2 2
Wind_Direction
221 227 233 235 238 249 258 265 265 263 258 252 242 243 241 228 217 207 193 182 176 174 161 145 139 138 138 138 146 152 159 152 158 162 177 177 175 179 169 162 145 154 166 164
229 232 240 241 239 250 250 257 264 258 249 249 249 250 248 225 221 213 198 187 177 170 160 148 144 143 146 149 154 156 157 158 172 162 174 180 172 179 164 145 147 161 166 175
232 238 240 243 244 248 252 252 258 266 269 260 260 253 242 221 210 195 195 188 176 171 160 155 155 156 157 156 159 164 161 161 171 162 171 180 166 177 168 157 160 172 172 179
246 248 249 251 252 253 256 252 259 264 265 260 258 261 243 225 205 188 193 190 176 169 164 158 159 163 163 160 160 149 148 153 164 176 182 182 177 184 179 163 161 165 166 172
251 251 250 250 252 256 261 261 262 264 262 268 259 261 250 210 215 193 189 191 183 166 166 163 161 161 160 157 154 148 139 143 154 172 174 179 181 178 159 145 154 165 167 178
255 256 253 254 255 256 262 264 261 261 258 258 259 261 261 220 204 190 182 186 168 159 166 163 158 153 152 149 149 145 145 151 152 164 161 168 176 171 161 151 165 173 163 173
251 253 248 245 247 246 248 251 251 246 246 254 265 257 267 235 203 191 176 169 154 156 153 158 158 154 153 152 152 152 151 154 157 161 162 164 174 173 177 179 180 176 167 173
251 251 239 236 238 248 242 247 249 254 259 265 255 250 227 207 173 149 153 153 152 155 156 161 155 153 155 154 151 151 151 149 158 162 160 170 183 185 172 186 195 191 180 183
258 260 249 243 237 241 245 242 252 265 273 271 252 238 199 173 137 128 134 141 141 152 156 152 153 148 150 153 151 155 152 155 163 167 173 179 188 186 174 190 209 210 193 185
271 275 261 251 249 238 244 251 254 254 266 273 266 242 219 171 136 127 145 140 143 148 143 147 152 148 150 149 147 149 152 160 167 169 183 180 180 184 190 203 201 199 201 191
267 268 260 248 242 249 244 247 250 251 255 263 272 269 132 124 126 137 142 136 149 149 147 145 146 147 149 146 149 152 153 160 169 170 173 177 184 185 189 210 195 187 198 195
274 280 271 255 248 254 253 250 251 252 254 263 268 276 102 118 105 113 122 125 138 135 135 145 134 131 144 150 151 153 162 169 171 167 166 168 172 181 191 194 188 191 201 206
301 282 274 255 240 243 253 256 259 255 253 255 257 244 149 116 106 102 102 117 131 133 140 133 125 127 122 139 144 148 160 160 160 162 166 164 178 181 180 175 184 201 209 209
256 259 264 265 272 268 266 265 266 259 252 251 256 242 221 131 115 102 107 119 135 140 138 133 128 122 119 126 132 146 157 155 153 159 165 168 178 175 172 173 174 193 207 208
257 258 263 273 282 278 269 270 274 270 263 260 251 237 243 93 99 109 125 131 135 139 139 131 129 116 113 118 138 149 152 146 149 166 169 172 175 173 167 164 166 172 208 212
255 270 276 274 277 281 276 271 265 267 267 257 250 249 64 63 71 80 107 119 129 142 139 125 130 133 123 109 160 160 162 147 146 175 171 159 160 169 165 160 158 149 127 29
266 271 275 272 274 274 270 285 279 290 325 310 319 326 66 42 60 68 94 101 93 99 103 100 112 115 111 111 154 160 146 150 155 176 171 169 173 170 167 170 164 169 175 205
258 266 268 270 275 259 254 306 333 360 16 8 23 47 61 77 77 69 67 60 51 60 69 85 94 95 91 81 67 120 154 163 164 165 162 169 177 172 171 172 170 185 194 208
232 244 259 264 257 254 258 341 317 281 10 11 11 44 76 97 102 68 56 55 49 53 57 57 78 96 92 81 65 43 177 173 171 164 176 182 186 185 179 177 182 191 205 222
217 219 237 255 262 267 360 357 332 292 145 21 22 23 35 57 136 75 55 51 55 51 55 57 59 77 79 68 64 353 99 149 183 184 185 169 175 185 196 179 179 194 221 223
230 228 243 255 257 268 359 345 330 308 31 12 14 19 30 28 58 75 69 59 55 56 55 58 62 65 64 58 56 25 43 44 27 42 59 73 121 185 195 156 170 204 243 249
286 277 268 269 257 317 4 3 26 34 19 7 12 35 54 63 66 74 79 72 59 51 49 50 53 54 54 53 52 34 27 27 38 45 42 45 56 283 178 169 220 227 238 249
330 352 331 3 53 63 38 42 49 43 29 17 21 40 56 67 61 62 74 72 62 52 45 44 50 57 58 52 46 36 31 31 45 43 40 41 19 356 277 206 231 240 239 243
12 18 1 25 71 55 40 36 31 31 37 38 41 43 47 50 56 58 63 67 61 52 44 38 44 57 54 47 29 33 49 58 60 49 41 23 7 338 326 294 254 257 266 271
334 329 326 328 35 23 27 20 15 25 46 44 44 39 37 39 44 54 57 59 54 44 35 34 50 58 52 46 30 25 41 55 61 50 16 340 322 334 353 329 335 314 360 312
331 331 317 324 7 340 331 353 2 26 33 24 27 27 24 34 29 53 56 61 62 45 34 38 47 44 46 42 35 34 43 45 53 32 347 328 329 343 326 318 357 15 13 49